Back to catalog

IRIDIUM 33 DEB

AlivePO
NORAD 35744·DEBRIS·🇺🇸 United States

Launched Sep 14, 1997 from Baikonur Cosmodrome

Loading…

Next Passes (next 24 hours)

TLE

FreshSource: Space-Track

Epoch: Sep 14, 2026, 03:42 UTC

1 35744U 97051RX  26257.15472279  .00004176  00000-0  62635-3 0  9997
2 35744  86.3321 200.6102 0019448 334.8037  25.2230 14.74253022913853

Track IRIDIUM 33 DEB in real time with AllMySat

Download on the App Store